| time (UTC) | temp C | wind direction | speed KPH | gust KPH | rain 1hr cm | rain 24hr cm | rain mn cm | humidity % | barometer mb |
| 20260507020700 | 9 | 312 | 0.0 | 0.0 | 0.00 | 1.32 | 0.91 | 75 | 1014.5 |
| 20260507015701 | 9 | 312 | 0.0 | 0.0 | 0.00 | 1.40 | 0.91 | 74 | 1014.1 |
| 20260507014701 | 9 | 312 | 0.0 | 0.0 | 0.00 | 1.45 | 0.91 | 72 | 1014.1 |
| 20260507013701 | 10 | 312 | 0.0 | 0.0 | 0.00 | 1.50 | 0.91 | 71 | 1014.2 |
| 20260507012701 | 10 | 312 | 0.0 | 0.0 | 0.00 | 1.52 | 0.91 | 68 | 1014.2 |
| 20260507011700 | 10 | 312 | 0.0 | 0.0 | 0.00 | 1.57 | 0.91 | 66 | 1014.2 |
| 20260507010700 | 10 | 312 | 0.0 | 0.0 | 0.00 | 1.60 | 0.91 | 65 | 1014.1 |
| 20260507005703 | 10 | 312 | 0.0 | 0.0 | 0.00 | 1.60 | 0.91 | 64 | 1014.0 |
| 20260507004703 | 10 | 312 | 0.0 | 3.2 | 0.00 | 1.63 | 0.91 | 63 | 1013.7 |
| 20260507002703 | 11 | 306 | 0.0 | 6.4 | 0.00 | 1.63 | 0.91 | 63 | 1013.4 |
| 20260507001703 | 12 | 298 | 1.6 | 6.4 | 0.00 | 1.63 | 0.91 | 62 | 1013.2 |
| 20260507000702 | 12 | 296 | 3.2 | 14.5 | 0.00 | 1.63 | 0.91 | 60 | 1013.3 |
| 20260506235703 | 12 | 230 | 4.8 | 17.7 | 0.00 | 1.63 | 0.91 | 61 | 1013.1 |
| 20260506234702 | 12 | 255 | 6.4 | 14.5 | 0.00 | 1.63 | 0.91 | 61 | 1013.1 |
| 20260506233703 | 12 | 3 | 1.6 | 9.7 | 0.00 | 1.63 | 0.91 | 60 | 1013.0 |
| 20260506232702 | 13 | 305 | 1.6 | 14.5 | 0.00 | 1.63 | 0.91 | 60 | 1012.9 |
| 20260506231703 | 13 | 231 | 4.8 | 20.9 | 0.00 | 1.63 | 0.91 | 59 | 1013.2 |
| 20260506230702 | 13 | 313 | 3.2 | 17.7 | 0.00 | 1.63 | 0.91 | 60 | 1013.2 |
| 20260506225703 | 13 | 261 | 3.2 | 9.7 | 0.00 | 1.63 | 0.91 | 60 | 1013.5 |
| 20260506224702 | 13 | 336 | 4.8 | 14.5 | 0.00 | 1.63 | 0.91 | 60 | 1013.5 |
| 20260506223702 | 13 | 262 | 3.2 | 17.7 | 0.00 | 1.63 | 0.91 | 61 | 1013.6 |
| 20260506222702 | 13 | 292 | 6.4 | 17.7 | 0.00 | 1.65 | 0.91 | 60 | 1013.7 |
| 20260506221704 | 13 | 326 | 4.8 | 17.7 | 0.00 | 1.68 | 0.91 | 61 | 1013.8 |
| 20260506220702 | 14 | 274 | 6.4 | 20.9 | 0.00 | 1.73 | 0.91 | 59 | 1013.5 |
| 20260506215702 | 14 | 66 | 8.0 | 17.7 | 0.00 | 1.83 | 0.91 | 61 | 1013.0 |
| 20260506213702 | 13 | 320 | 8.0 | 24.1 | 0.00 | 1.88 | 0.91 | 59 | 1012.9 |
| 20260506212702 | 13 | 333 | 4.8 | 17.7 | 0.00 | 1.88 | 0.91 | 62 | 1012.7 |
| 20260506211701 | 14 | 303 | 3.2 | 20.9 | 0.00 | 1.88 | 0.91 | 61 | 1012.7 |
| 20260506210702 | 14 | 295 | 4.8 | 24.1 | 0.00 | 1.88 | 0.91 | 61 | 1012.6 |
| 20260506205702 | 14 | 285 | 4.8 | 20.9 | 0.00 | 1.88 | 0.91 | 60 | 1012.4 |
| 20260506204703 | 15 | 320 | 6.4 | 17.7 | 0.00 | 1.88 | 0.91 | 58 | 1012.4 |
| 20260506203703 | 15 | 32 | 9.7 | 24.1 | 0.00 | 1.88 | 0.91 | 57 | 1012.4 |
| 20260506202703 | 15 | 282 | 9.7 | 20.9 | 0.00 | 1.88 | 0.91 | 55 | 1012.4 |
| 20260506200702 | 16 | 331 | 9.7 | 27.4 | 0.00 | 1.88 | 0.91 | 59 | 1012.2 |
| 20260506195703 | 16 | 274 | 12.9 | 24.1 | 0.00 | 1.88 | 0.91 | 58 | 1012.2 |
| 20260506194703 | 16 | 257 | 6.4 | 17.7 | 0.00 | 1.88 | 0.91 | 57 | 1012.3 |
| 20260506193703 | 16 | 62 | 6.4 | 27.4 | 0.00 | 1.88 | 0.91 | 56 | 1012.2 |
| 20260506192704 | 16 | 276 | 9.7 | 27.4 | 0.00 | 1.88 | 0.91 | 56 | 1012.2 |
| 20260506191704 | 16 | 248 | 14.5 | 20.9 | 0.00 | 1.88 | 0.91 | 60 | 1011.9 |
| 20260506190703 | 16 | 316 | 12.9 | 24.1 | 0.00 | 1.88 | 0.91 | 55 | 1011.9 |
| 20260506185702 | 16 | 258 | 8.0 | 27.4 | 0.00 | 1.88 | 0.91 | 57 | 1012.3 |
| 20260506184701 | 16 | 354 | 12.9 | 24.1 | 0.00 | 1.88 | 0.91 | 57 | 1012.2 |
| 20260506181702 | 16 | 169 | 4.8 | 17.7 | 0.00 | 1.88 | 0.91 | 57 | 1012.4 |
| 20260506180702 | 15 | 300 | 6.4 | 24.1 | 0.00 | 1.88 | 0.91 | 55 | 1012.3 |
| 20260506175702 | 15 | 121 | 6.4 | 20.9 | 0.00 | 1.88 | 0.91 | 55 | 1012.3 |
| 20260506174703 | 15 | 321 | 6.4 | 24.1 | 0.00 | 1.88 | 0.91 | 54 | 1012.3 |
| 20260506173703 | 15 | 13 | 9.7 | 37.0 | 0.00 | 1.88 | 0.91 | 55 | 1012.4 |
| 20260506172704 | 15 | 274 | 12.9 | 24.1 | 0.00 | 1.88 | 0.91 | 58 | 1012.5 |
| 20260506171703 | 15 | 8 | 8.0 | 24.1 | 0.00 | 1.88 | 0.91 | 60 | 1012.6 |
| 20260506170703 | 15 | 357 | 11.3 | 24.1 | 0.00 | 1.88 | 0.91 | 59 | 1012.7 |
| 20260506164701 | 15 | 265 | 6.4 | 24.1 | 0.00 | 1.88 | 0.91 | 61 | 1012.2 |
| 20260506162703 | 14 | 262 | 6.4 | 37.0 | 0.00 | 1.88 | 0.91 | 63 | 1012.6 |
| 20260506161703 | 14 | 23 | 6.4 | 17.7 | 0.00 | 1.88 | 0.91 | 64 | 1012.6 |
| 20260506160703 | 13 | 323 | 8.0 | 24.1 | 0.00 | 1.88 | 0.91 | 64 | 1012.4 |
| 20260506154703 | 13 | 1 | 3.2 | 24.1 | 0.00 | 1.88 | 0.91 | 65 | 1012.3 |
| 20260506153714 | 13 | 345 | 6.4 | 17.7 | 0.00 | 1.88 | 0.91 | 66 | 1012.1 |
| 20260506150702 | 12 | 42 | 4.8 | 17.7 | 0.00 | 1.88 | 0.91 | 70 | 1011.8 |
| 20260506145702 | 11 | 265 | 6.4 | 17.7 | 0.00 | 1.88 | 0.91 | 72 | 1011.9 |
| 20260506144702 | 11 | 18 | 9.7 | 20.9 | 0.00 | 1.88 | 0.91 | 73 | 1011.9 |
| 20260506143702 | 11 | 309 | 9.7 | 20.9 | 0.00 | 1.88 | 0.91 | 75 | 1011.8 |
| 20260506142703 | 10 | 312 | 9.7 | 17.7 | 0.00 | 1.88 | 0.91 | 77 | 1011.6 |
| 20260506141702 | 10 | 269 | 4.8 | 17.7 | 0.00 | 1.88 | 0.91 | 78 | 1011.7 |
| 20260506140702 | 10 | 30 | 0.0 | 20.9 | 0.00 | 1.88 | 0.91 | 80 | 1011.3 |
| 20260506133702 | 9 | 255 | 6.4 | 20.9 | 0.00 | 1.88 | 0.91 | 84 | 1010.8 |
| 20260506132702 | 9 | 338 | 4.8 | 20.9 | 0.00 | 1.88 | 0.91 | 87 | 1010.9 |
| 20260506131702 | 9 | 310 | 8.0 | 20.9 | 0.00 | 1.88 | 0.91 | 88 | 1010.8 |
| 20260506130702 | 9 | 358 | 6.4 | 17.7 | 0.00 | 1.88 | 0.91 | 90 | 1010.7 |
| 20260506125702 | 8 | 31 | 12.9 | 30.6 | 0.00 | 1.88 | 0.91 | 90 | 1010.7 |
| 20260506124701 | 8 | 338 | 0.0 | 14.5 | 0.00 | 1.88 | 0.91 | 92 | 1010.6 |
| 20260506122703 | 8 | 0 | 1.6 | 9.7 | 0.00 | 1.88 | 0.91 | 93 | 1010.0 |
| 20260506121703 | 8 | 37 | 6.4 | 17.7 | 0.00 | 1.88 | 0.91 | 93 | 1009.8 |
| 20260506120703 | 8 | 18 | 4.8 | 17.7 | 0.00 | 1.88 | 0.91 | 94 | 1009.6 |
| 20260506115703 | 8 | 49 | 4.8 | 14.5 | 0.00 | 1.88 | 0.91 | 94 | 1010.0 |
| 20260506114702 | 8 | 303 | 4.8 | 20.9 | 0.03 | 1.88 | 0.91 | 94 | 1009.6 |
| 20260506113703 | 8 | 0 | 8.0 | 24.1 | 0.03 | 1.88 | 0.91 | 94 | 1009.6 |
| 20260506112702 | 8 | 343 | 4.8 | 17.7 | 0.03 | 1.88 | 0.91 | 94 | 1009.6 |
| 20260506105702 | 8 | 37 | 4.8 | 20.9 | 0.03 | 1.85 | 0.91 | 93 | 1008.2 |
| 20260506104702 | 8 | 295 | 8.0 | 30.6 | 0.00 | 1.85 | 0.89 | 93 | 1008.3 |
| 20260506103702 | 8 | 348 | 3.2 | 14.5 | 0.00 | 1.85 | 0.89 | 93 | 1008.6 |
| 20260506102702 | 8 | 288 | 3.2 | 9.7 | 0.00 | 1.85 | 0.89 | 94 | 1008.5 |
| 20260506101702 | 8 | 320 | 3.2 | 9.7 | 0.00 | 1.85 | 0.89 | 93 | 1008.0 |
| 20260506100703 | 8 | 329 | 1.6 | 17.7 | 0.00 | 1.85 | 0.89 | 93 | 1007.9 |
| 20260506094702 | 8 | 45 | 0.0 | 14.5 | 0.03 | 1.85 | 0.89 | 93 | 1007.2 |
| 20260506092702 | 8 | 343 | 8.0 | 27.4 | 0.10 | 1.85 | 0.89 | 93 | 1007.7 |
| 20260506091701 | 8 | 6 | 9.7 | 27.4 | 0.13 | 1.85 | 0.89 | 93 | 1007.4 |
| 20260506085703 | 8 | 338 | 6.4 | 30.6 | 0.20 | 1.65 | 0.89 | 93 | 1007.2 |
| 20260506084703 | 8 | 336 | 11.3 | 30.6 | 0.23 | 1.65 | 0.86 | 93 | 1007.1 |
| 20260506083704 | 8 | 86 | 8.0 | 27.4 | 0.18 | 1.65 | 0.81 | 93 | 1007.5 |
| 20260506082702 | 8 | 11 | 6.4 | 30.6 | 0.15 | 1.65 | 0.79 | 93 | 1007.5 |
| 20260506081702 | 8 | 10 | 6.4 | 30.6 | 0.15 | 1.65 | 0.76 | 93 | 1007.2 |
| 20260506080704 | 8 | 0 | 4.8 | 27.4 | 0.13 | 1.65 | 0.71 | 94 | 1007.2 |
| 20260506072703 | 8 | 350 | 6.4 | 20.9 | 0.23 | 1.52 | 0.64 | 93 | 1006.7 |
| 20260506070702 | 9 | 3 | 4.8 | 20.9 | 0.30 | 1.52 | 0.58 | 93 | 1006.6 |
| 20260506061704 | 10 | 14 | 6.4 | 17.7 | 0.30 | 1.19 | 0.33 | 93 | 1006.8 |
| 20260506060702 | 10 | 354 | 3.2 | 24.1 | 0.28 | 1.19 | 0.28 | 93 | 1006.6 |
| 20260506050703 | 11 | 327 | 3.2 | 17.7 | 0.00 | 0.97 | 0.00 | 93 | 1007.0 |
| 20260506044702 | 12 | 24 | 3.2 | 9.7 | 0.00 | 0.97 | 0.00 | 92 | 1007.0 |
| 20260506043702 | 13 | 237 | 3.2 | 14.5 | 0.03 | 0.97 | 0.00 | 92 | 1007.0 |
| 20260506041702 | 14 | 172 | 0.0 | 0.0 | 0.13 | 0.97 | 0.00 | 94 | 1007.1 |
| 20260506040701 | 14 | 172 | 0.0 | 0.0 | 0.15 | 0.97 | 0.00 | 94 | 1007.0 |
| 20260506035702 | 14 | 172 | 0.0 | 0.0 | 0.23 | 0.76 | 0.97 | 94 | 1007.0 |
| 20260506034702 | 14 | 172 | 0.0 | 3.2 | 0.25 | 0.76 | 0.97 | 94 | 1007.2 |
| 20260506032704 | 14 | 171 | 0.0 | 0.0 | 0.25 | 0.76 | 0.91 | 94 | 1007.6 |
| 20260506031703 | 14 | 220 | 0.0 | 0.0 | 0.23 | 0.76 | 0.84 | 94 | 1007.8 |
| 20260506025703 | 15 | 193 | 0.0 | 0.0 | 0.25 | 0.48 | 0.71 | 94 | 1008.1 |
| 20260506024703 | 15 | 193 | 0.0 | 0.0 | 0.28 | 0.48 | 0.69 | 94 | 1007.9 |
| 20260506023702 | 15 | 193 | 0.0 | 0.0 | 0.30 | 0.48 | 0.69 | 94 | 1008.0 |
| 20260506022702 | 15 | 193 | 0.0 | 0.0 | 0.30 | 0.48 | 0.66 | 93 | 1008.0 |
| 20260506021704 | 15 | 193 | 0.0 | 3.2 | 0.30 | 0.48 | 0.61 | 93 | 1008.0 |